Dewpoint
-8 -3 -2 -2 -6 -5 -4 -4 -5 -5 -1 -1 6 6 5 8 7 7 11 13 14 12 10 10 10 9 9 7 6 8 10 10 10 9 8 5 3 4 4 5 10 10 9 6 10 11 10 3 3
-8 -5 -3 -5 -4 -4 -5 -6 -6 -7 -1 5 8 10 8 6 10 11 13 14 13 13 12 11 9 9 8 7 7 8 9 10 9 10 7 5 5 4 3 9 10 9 5 0 6 6 -4 -6 -6
-8 -5 -4 -4 -3 -4 -4 -6 -6 -7 -5 5 7 9 9 7 9 11 12 13 14 14 12 9 9 10 8 8 8 8 9 7 9 10 8 5 5 4 8 10 10 5 -6 -4 -2 -6 -7 -6 -9
-2 -4 -5 -3 -4 -4 -5 -6 -6 -6 3 6 9 8 8 7 7 11 12 12 13 14 10 10 9 10 8 7 7 6 5 7 10 9 7 6 4 4 9 10 4 6 9 8 -1 -3 -10 -11 -13
-1 -3 -3 -3 -4 -5 -6 -6 -6 -0 4 6 8 6 7 6 7 8 9 11 12 14 12 10 10 10 9 7 7 6 5 5 5 1 -1 4 -0 6 9 8 9 10 10 8 -4 -11 -12 -13 -13
-4 -5 -3 -4 -5 -6 -6 -7 -1 4 4 6 7 7 7 6 8 10 9 10 10 14 13 11 10 9 8 8 8 8 6 6 3 4 2 1 1 7 8 7 4 4 5 3 -1 -2 -9 -10 -11
-4 -4 -4 -4 -4 -5 -7 1 3 3 4 4 7 9 9 8 8 8 9 11 12 13 13 12 10 9 9 9 9 8 9 9 3 1 5 -2 5 6 8 4 3 5 4 3 3 -3 -3 -5 -8
-5 -4 -3 -3 -4 -6 -8 2 3 5 4 5 7 8 8 7 6 5 8 13 13 12 12 11 11 10 10 10 9 9 10 10 7 7 5 1 6 7 5 3 4 4 5 4 3 1 -0 -3 -5
-5 -3 -3 -4 -5 -7 -8 -2 3 5 6 7 8 8 8 8 8 11 12 13 12 11 11 10 11 10 11 11 11 11 11 9 6 7 6 1 7 7 2 3 3 4 4 5 4 2 -0 -2 -4
-5 -3 -4 -6 -7 -8 -8 -6 0 5 6 7 9 8 7 9 10 11 11 11 10 9 10 10 9 11 10 11 11 10 8 7 6 6 7 0 2 1 1 4 3 3 4 6 4 1 -1 -3 -4
-5 -4 -6 -7 -8 -8 -7 -0 5 6 5 5 7 6 7 9 10 11 10 10 10 10 11 11 10 9 9 9 8 9 8 8 5 7 4 1 -3 4 4 4 3 3 5 6 3 1 -1 -3 -4
-5 -7 -7 -8 -8 -5 -5 1 5 6 3 3 4 7 8 9 10 10 10 10 11 11 12 11 11 9 10 11 10 10 10 8 8 6 2 -1 -0 3 3 4 2 2 2 2 1 0 -1 -2 -3
-6 -7 -8 -8 -6 -4 -3 0 2 5 2 5 6 7 8 9 10 9 10 10 10 11 10 11 11 10 10 11 10 10 8 6 5 6 1 -2 -3 -2 2 3 2 2 1 1 0 -2 -2 -3 -3
-6 -7 -6 -4 -5 -4 -0 2 6 3 2 5 7 9 9 9 9 9 9 10 9 9 11 11 11 11 11 10 10 10 9 6 4 5 0 -1 -2 -3 -5 -2 1 0 -0 -1 -3 -2 -2 -3 -3
-5 -3 -5 -5 -6 -3 4 2 6 2 4 7 8 10 9 9 9 9 7 9 9 9 11 10 10 11 11 10 9 9 7 8 6 5 2 -1 -0 -2 -5 -5 -3 -2 -2 -2 0 4 5 4 0
-3 -4 -3 -7 -3 1 2 0 -3 -0 6 8 10 10 10 9 9 9 6 7 9 8 9 10 10 10 10 10 8 9 9 8 7 5 3 1 1 0 -0 -3 -3 -1 3 4 5 5 5 5 4
-2 -3 -3 -5 -6 2 0 -1 -2 2 6 7 8 10 10 10 9 9 7 7 8 9 9 10 9 10 10 10 10 9 9 9 8 4 4 1 0 2 2 0 2 4 4 5 5 5 6 6 5
-5 -1 -2 -4 -4 -3 0 -2 -3 0 6 7 7 9 10 9 9 9 8 7 7 9 9 9 10 10 10 10 10 10 9 8 8 8 7 3 1 3 4 4 4 4 4 5 5 5 6 6 7
-4 -3 -3 -4 -5 -5 -4 -2 -3 -1 6 6 7 8 9 8 9 10 8 6 7 8 8 9 10 10 9 10 10 10 9 7 7 6 6 5 2 2 4 4 4 4 4 4 4 5 7 7 7
-3 -2 -2 -3 -4 -4 -4 -3 -3 0 3 4 5 7 9 9 9 10 9 5 6 7 8 8 8 9 9 9 8 8 7 5 6 6 9 8 3 2 3 4 4 3 3 3 1 4 5 7 7
-2 -1 -2 -3 -4 -4 -2 -1 -2 -3 3 4 6 6 7 8 8 9 9 7 4 6 7 7 8 8 9 9 9 8 7 7 9 7 8 8 5 3 3 3 4 3 3 3 3 4 4 6 7
-0 -3 -3 -2 -2 -4 -1 2 -0 -2 -2 1 2 5 7 7 8 9 8 7 4 3 5 7 7 8 9 9 9 8 8 8 7 6 8 9 7 4 3 4 4 4 4 3 4 5 4 4 5
-3 -2 -2 -2 -2 -1 -2 1 -0 -1 -1 -2 -2 1 4 5 4 6 8 7 6 2 4 5 7 7 7 8 8 8 8 7 8 8 8 6 5 5 5 4 4 6 4 5 5 5 2 5 6
-3 -2 -1 1 1 3 1 1 1 -1 -1 -2 -3 -2 -3 3 3 4 7 8 7 5 1 3 5 6 7 7 8 7 8 8 8 7 5 5 5 5 6 4 4 5 3 6 4 2 2 3 5
-3 -0 2 5 5 4 1 1 1 -1 -3 -2 -2 -3 -3 -2 3 4 6 7 7 7 3 1 1 4 4 6 6 6 7 7 6 7 5 5 5 5 4 4 3 3 5 5 1 1 1 1 2
-0 -0 3 3 5 3 1 3 0 -2 -2 -2 -3 -3 -3 -2 -0 3 3 5 6 6 6 2 -0 2 4 4 4 5 6 6 7 7 6 5 6 4 3 3 3 3 3 3 3 3 3 2 2
1 2 -0 2 3 5 2 2 0 -1 -1 -2 -2 -2 -3 -2 -1 -0 4 4 5 5 5 5 2 -0 2 3 4 4 4 5 5 5 6 6 5 3 3 3 3 3 3 3 3 3 3 2 4
-0 -1 3 3 4 4 3 3 1 -1 -2 -3 -3 -2 -3 -2 -2 -0 2 3 4 4 4 5 5 2 -1 1 3 3 3 4 5 5 6 6 5 5 4 3 3 3 3 4 3 3 2 2 5
0 1 2 1 3 3 3 2 1 1 -1 -1 -0 -2 -2 -5 -2 -1 1 3 5 4 4 5 6 6 3 0 0 1 1 2 3 3 4 4 5 5 5 4 4 4 4 3 3 2 2 5 7
-2 -0 1 4 3 5 4 3 -2 0 -0 -1 -1 -3 -3 -3 -5 -2 1 2 4 4 3 3 5 6 6 5 2 0 1 -0 0 -0 -2 -2 -3 -1 -1 2 2 2 2 1 1 2 5 7 8
Wind_Speed
4 4 1 2 2 2 1 1 2 4 2 4 4 5 5 6 6 4 2 15 18 27 32 34 33 27 32 34 29 29 29 29 29 28 26 27 26 26 24 24 25 23 21 21 24 25 24 25 24
4 4 1 2 2 1 1 2 5 8 5 6 6 5 5 5 8 4 3 15 21 27 29 26 27 29 30 32 32 32 32 30 29 29 28 27 26 25 24 26 24 23 21 23 25 25 24 25 24
5 3 1 3 3 1 3 5 8 6 9 5 2 4 4 3 4 3 5 14 14 26 27 25 23 26 29 32 35 35 32 28 30 29 27 27 26 25 26 26 24 23 24 26 27 27 25 24 23
4 2 4 0 2 4 4 5 4 7 1 3 1 7 7 7 4 8 10 9 15 31 23 32 29 35 32 31 32 31 28 30 30 29 28 25 27 26 26 26 25 24 27 28 28 26 25 23 23
4 2 2 0 3 4 5 9 8 5 3 3 3 4 5 8 12 9 10 8 13 25 22 28 30 32 31 31 23 25 30 29 29 23 21 30 28 28 28 28 28 29 28 27 26 27 26 24 24
2 2 1 3 4 4 5 9 3 5 4 2 4 4 4 6 8 9 10 11 11 21 24 34 35 33 29 26 25 31 32 27 26 27 31 32 30 30 29 28 28 28 29 28 28 26 26 25 24
3 3 3 3 3 4 3 4 3 4 4 4 4 3 4 5 8 8 11 9 11 20 19 21 34 39 31 28 26 24 26 27 30 30 33 30 33 33 30 30 28 29 28 28 26 27 25 25 24
5 2 4 4 4 4 4 3 5 6 5 6 5 4 4 4 7 10 10 7 5 15 20 20 23 34 35 30 27 25 32 31 29 31 34 37 36 34 30 29 29 29 28 27 26 26 23 23 23
5 2 4 4 6 3 4 4 4 5 5 5 7 8 11 10 10 4 6 12 12 11 12 13 20 28 31 39 30 34 39 36 32 31 34 38 38 33 31 30 28 28 27 26 25 23 22 22 21
5 3 8 6 5 4 10 6 5 5 6 6 9 12 14 8 3 3 5 8 9 11 12 13 15 19 27 30 28 26 19 33 41 34 37 37 34 34 32 29 28 27 28 26 23 21 20 20 20
6 7 6 6 13 9 7 6 5 5 8 12 7 5 9 6 4 5 7 9 9 12 11 13 12 19 23 32 19 29 27 35 39 35 36 37 35 35 33 30 28 29 29 27 24 21 19 18 18
5 11 10 4 7 4 5 3 5 11 7 6 5 4 6 6 6 8 8 9 11 10 12 13 15 23 26 33 28 31 38 41 36 34 36 35 36 36 34 32 30 29 29 27 24 21 18 18 16
6 7 7 13 10 13 8 11 8 14 16 14 9 5 8 8 7 7 9 11 12 12 7 22 19 26 25 30 28 36 39 45 41 36 35 35 36 34 34 31 28 27 26 24 23 19 19 17 16
6 11 10 9 14 10 7 3 2 7 11 14 10 10 10 9 7 6 8 13 14 12 10 17 35 28 25 26 32 37 35 42 42 36 36 35 31 35 35 31 29 27 24 22 19 18 16 14 13
4 5 7 7 6 4 7 5 9 16 10 12 11 12 13 10 8 5 5 11 14 12 12 17 25 23 27 32 36 37 45 45 44 41 40 37 32 35 33 32 30 26 23 20 20 17 15 13 13
2 1 5 1 4 0 4 6 10 10 12 12 13 13 13 12 9 7 5 8 13 12 13 16 23 26 32 26 39 38 37 44 44 45 43 39 35 35 34 34 31 27 23 21 20 15 14 13 11
1 5 6 5 2 5 3 8 1 4 6 10 13 14 14 14 12 9 7 8 11 13 12 17 18 23 33 24 32 35 35 40 44 46 39 39 38 37 34 33 32 28 23 21 18 14 12 11 11
10 5 5 8 4 1 5 13 16 8 10 13 13 13 14 17 15 11 9 9 10 14 15 15 20 26 21 22 26 30 32 37 41 35 42 40 39 38 35 33 31 26 24 21 17 13 13 11 9
6 6 6 4 4 3 6 8 14 7 9 13 15 16 17 17 16 13 11 11 11 12 16 18 20 24 20 25 29 29 35 34 37 41 41 39 39 38 35 32 28 27 23 16 12 15 13 12 13
6 7 8 11 4 7 11 10 13 5 7 12 16 20 19 17 18 19 15 12 14 13 15 21 21 21 24 29 25 32 39 40 36 38 38 40 40 39 34 32 30 21 18 16 22 18 15 14 15
14 18 13 11 5 5 7 7 6 4 5 9 14 15 19 22 24 23 20 15 14 17 17 19 24 22 24 24 27 34 35 38 38 36 35 43 44 38 32 32 26 22 18 26 24 20 17 14 15
15 12 12 9 3 6 3 8 4 10 10 8 13 17 20 23 25 25 24 20 16 16 18 18 22 23 23 25 29 31 35 36 35 38 36 41 42 36 34 34 25 28 28 27 22 22 18 15 18
12 9 12 9 7 4 7 7 4 4 7 10 9 15 19 23 28 30 30 23 17 16 19 20 21 26 27 26 26 29 34 33 35 38 36 38 31 40 37 37 34 29 31 25 26 25 20 18 19
7 3 2 2 2 6 9 6 5 7 11 9 10 15 17 19 26 28 27 26 23 20 19 20 22 24 26 28 30 32 35 34 35 38 38 36 40 40 37 39 37 33 34 31 28 25 22 21 23
6 4 2 2 4 7 5 9 14 9 14 13 13 15 16 13 19 27 31 32 30 26 23 24 24 26 27 29 30 33 37 38 41 41 42 44 42 41 42 40 38 38 35 32 28 23 21 23 27
14 14 5 7 5 3 6 6 6 8 11 12 14 17 16 14 16 24 31 33 32 29 28 27 27 28 30 30 31 32 34 41 42 45 44 47 46 47 45 45 44 44 43 40 36 33 31 33 33
6 9 10 1 1 2 3 4 9 6 8 7 9 11 15 14 17 21 26 34 32 31 31 30 30 30 31 32 32 34 36 39 43 47 45 51 49 48 49 46 43 45 45 45 46 44 40 37 35
8 9 4 2 5 10 4 4 6 2 6 7 6 10 16 16 14 17 23 30 34 32 31 31 31 31 29 32 34 34 35 37 40 42 46 51 51 51 51 51 48 49 46 42 44 44 43 40 39
5 8 3 4 3 7 9 6 8 12 11 9 9 12 13 17 13 15 18 23 30 31 32 34 34 34 34 33 35 36 37 38 39 42 43 46 47 48 50 51 49 45 42 41 41 43 41 43 43
2 3 7 6 8 3 3 10 3 10 8 7 12 20 18 15 12 13 14 17 24 30 32 34 37 39 38 37 36 36 39 39 40 40 39 38 39 38 37 38 39 40 39 40 42 43 41 35 38
Wind_Direction
156 137 96 147 194 51 340 244 284 272 257 207 285 223 228 248 244 287 278 178 192 187 185 188 188 198 183 184 182 181 177 177 173 171 167 164 165 163 163 165 164 159 154 145 135 132 132 134 138
155 182 141 121 95 61 328 245 246 251 262 291 233 236 244 252 239 258 145 170 179 197 192 188 197 196 184 182 180 177 177 176 173 175 172 167 168 167 167 168 167 166 157 142 135 132 134 134 133
160 165 151 77 105 176 247 214 251 277 274 220 241 254 269 249 235 200 193 187 191 202 197 194 187 194 182 180 175 175 176 182 179 174 173 169 170 168 167 168 168 160 149 143 136 135 133 132 126
161 144 60 159 196 235 230 260 249 297 89 196 225 276 267 254 225 219 201 222 201 203 197 194 196 185 183 175 179 182 184 175 174 178 175 172 175 170 169 168 162 146 137 136 136 131 128 129 123
165 106 91 120 255 263 251 274 269 266 284 180 173 260 254 272 236 249 241 236 216 205 204 194 189 181 176 179 189 200 180 176 176 177 184 180 172 168 166 162 156 152 151 144 134 130 128 126 120
140 109 156 223 243 255 259 250 216 245 255 194 231 258 258 261 239 250 248 236 226 202 209 191 191 191 195 203 198 190 180 179 177 178 181 175 169 167 166 166 160 153 148 142 137 129 121 118 119
176 143 209 215 255 274 240 203 231 237 245 248 224 262 271 263 228 249 257 254 234 206 207 199 202 204 212 197 198 207 206 202 182 183 176 178 167 165 171 164 155 150 146 142 133 127 122 117 114
175 122 166 223 219 265 241 251 266 218 256 214 203 242 267 296 273 259 247 217 199 206 217 222 215 209 207 208 210 208 200 180 173 173 174 168 164 170 170 159 154 152 147 141 134 129 123 117 113
175 168 223 220 189 243 246 289 247 239 234 223 220 243 271 291 290 284 204 215 225 228 215 230 238 232 234 217 200 185 176 161 162 171 172 168 167 168 163 162 156 153 151 147 140 133 125 120 115
190 202 217 206 203 257 294 277 239 218 220 237 237 250 268 272 272 217 203 221 214 224 231 236 218 244 206 186 196 168 164 165 165 171 174 171 169 165 166 163 156 153 154 152 144 138 131 125 122
188 232 208 219 233 260 281 283 221 222 249 234 221 241 262 233 198 204 214 218 237 245 246 253 217 175 190 165 189 181 192 185 177 174 178 170 166 166 168 162 155 151 157 157 152 145 135 130 126
214 244 228 221 235 211 257 258 250 220 260 242 251 256 226 216 191 206 208 220 216 208 215 243 240 196 193 192 179 175 175 161 167 173 174 169 167 167 170 170 164 160 162 160 153 146 143 137 131
230 258 224 244 246 266 248 249 260 250 252 249 254 182 189 198 189 197 200 220 225 216 232 207 189 190 188 196 193 181 176 171 170 176 173 172 167 168 176 174 171 167 164 162 152 153 150 145 139
227 243 261 278 272 246 235 239 213 277 236 224 224 184 187 196 197 206 206 207 223 229 220 216 195 206 203 204 197 187 181 169 170 178 176 170 172 174 174 175 175 171 167 159 156 152 146 146 146
265 273 296 258 265 237 180 245 241 268 230 192 193 187 188 203 216 238 235 206 211 217 214 203 196 204 196 202 187 181 176 175 176 178 174 172 174 180 175 175 174 170 164 160 163 153 153 157 159
247 213 259 163 176 76 188 273 283 321 226 203 188 195 197 205 223 235 227 213 202 207 203 193 203 203 208 196 182 187 188 186 183 180 174 179 190 186 180 177 174 171 164 169 166 158 160 160 159
239 251 231 302 251 137 210 292 143 351 246 226 207 196 204 212 216 233 227 209 202 203 206 194 204 190 192 199 197 191 194 194 188 184 182 183 188 186 183 179 178 175 172 177 172 176 175 165 168
204 218 232 243 193 244 190 264 290 265 231 235 225 207 211 215 216 218 229 217 201 197 196 199 199 193 178 184 207 197 193 194 193 195 191 191 190 189 186 185 183 178 185 182 183 194 186 190 185
192 207 227 243 220 277 247 262 286 276 228 237 226 225 216 225 218 218 229 218 201 197 196 191 199 199 202 199 194 191 190 193 194 192 187 191 195 194 191 189 186 191 188 196 199 217 203 205 214
204 209 235 291 293 226 273 279 284 236 242 237 234 222 219 216 217 216 221 227 198 201 202 193 194 200 209 202 199 200 193 195 202 203 200 194 197 197 193 197 194 201 207 219 233 228 223 227 228
221 232 231 247 336 249 283 272 275 287 246 254 243 236 225 221 216 213 212 220 213 200 204 194 192 194 198 211 209 205 199 201 198 209 209 196 195 198 200 205 207 215 225 224 236 236 239 245 254
228 221 234 245 251 271 343 292 284 278 277 254 253 230 224 218 220 218 211 215 219 205 197 205 195 196 194 203 200 201 197 200 204 199 204 191 185 196 204 208 208 219 219 229 231 236 241 249 255
241 164 198 223 233 261 249 273 253 286 271 277 268 251 240 224 220 218 215 213 214 215 200 201 199 192 196 201 204 209 210 204 197 198 195 197 201 201 209 212 213 221 217 230 230 242 246 255 263
217 140 105 95 178 248 212 223 266 235 244 255 255 261 259 233 221 222 220 213 210 211 207 205 201 198 198 201 200 201 202 200 196 195 201 207 208 206 209 215 218 228 223 236 238 249 257 267 270
198 162 254 243 207 239 192 190 254 265 251 248 268 285 282 266 229 217 215 211 209 211 211 209 207 202 201 202 205 202 206 209 211 202 203 205 204 209 214 216 224 230 234 240 241 250 264 272 272
204 201 197 226 219 239 135 212 243 250 277 261 257 269 290 267 239 225 219 214 210 211 213 215 213 209 205 204 205 206 204 204 206 204 212 209 211 215 217 227 232 233 238 243 248 258 267 272 277
168 190 201 172 116 298 218 251 283 279 272 275 265 281 298 293 250 239 225 219 215 211 216 218 218 215 213 211 208 208 207 208 212 214 219 214 215 219 224 229 233 237 245 252 253 258 267 272 275
195 157 142 207 232 247 220 234 226 278 253 267 279 284 303 308 263 240 230 225 219 217 216 219 223 223 223 220 216 215 214 212 213 215 215 219 224 228 230 232 238 241 247 248 251 255 264 272 270
173 204 202 189 200 247 260 242 216 230 248 268 276 278 300 318 277 252 234 232 228 223 220 222 224 224 221 222 225 222 221 219 220 221 221 223 226 230 235 238 242 246 247 249 252 256 265 270 269
214 204 236 242 221 211 264 247 272 241 257 263 278 289 305 303 300 265 240 238 234 228 227 228 228 229 228 226 224 227 230 227 226 227 228 228 229 232 236 239 241 243 246 249 251 257 266 265 271
Height
1514 1513 1514 1514 1518 1517 1519 1515 1518 1513 1512 1509 1508 1508 1505 1504 1501 1501 1496 1494 1497 1500 1501 1501 1504 1507 1508 1511 1516 1519 1522 1523 1525 1528 1529 1534 1540 1543 1546 1551 1553 1555 1556 1556 1558 1560 1562 1563 1565
1513 1514 1514 1513 1515 1518 1516 1516 1513 1508 1508 1506 1506 1505 1504 1498 1497 1497 1497 1496 1496 1498 1500 1503 1505 1507 1509 1512 1515 1520 1521 1524 1525 1528 1531 1534 1540 1544 1547 1551 1554 1555 1555 1557 1559 1562 1564 1564 1565
1512 1514 1514 1515 1522 1517 1515 1511 1506 1505 1504 1504 1504 1503 1501 1497 1496 1496 1496 1496 1498 1498 1503 1503 1501 1510 1511 1514 1515 1519 1522 1523 1525 1527 1532 1534 1542 1544 1548 1552 1555 1556 1556 1557 1560 1563 1566 1567 1566
1512 1514 1516 1514 1516 1512 1509 1504 1505 1503 1502 1502 1503 1502 1500 1496 1495 1494 1496 1496 1498 1496 1499 1503 1504 1508 1509 1515 1515 1518 1521 1522 1524 1528 1531 1534 1542 1546 1550 1555 1557 1559 1559 1560 1561 1565 1567 1569 1568
1511 1512 1515 1517 1515 1511 1507 1505 1504 1502 1501 1501 1501 1498 1497 1494 1494 1493 1495 1495 1497 1498 1501 1506 1508 1510 1512 1515 1517 1518 1521 1523 1525 1527 1530 1538 1540 1546 1550 1556 1559 1560 1563 1563 1564 1566 1568 1568 1569
1511 1512 1515 1515 1513 1508 1504 1502 1501 1501 1500 1501 1500 1499 1495 1493 1493 1493 1493 1494 1495 1499 1501 1505 1509 1510 1511 1513 1515 1516 1520 1523 1523 1528 1533 1537 1540 1546 1552 1556 1559 1561 1564 1564 1566 1568 1569 1571 1572
1509 1510 1513 1514 1511 1507 1499 1499 1498 1496 1497 1497 1498 1498 1494 1493 1493 1492 1492 1493 1493 1497 1500 1504 1507 1507 1508 1509 1513 1516 1517 1520 1523 1528 1534 1535 1540 1547 1552 1556 1559 1563 1566 1568 1569 1569 1572 1573 1574
1507 1508 1515 1511 1507 1503 1497 1497 1495 1495 1492 1493 1495 1494 1493 1492 1492 1492 1491 1492 1492 1494 1497 1500 1503 1504 1505 1506 1509 1513 1515 1519 1523 1528 1534 1535 1540 1546 1552 1557 1560 1564 1568 1570 1572 1571 1575 1575 1577
1506 1507 1507 1505 1508 1497 1496 1496 1493 1492 1491 1491 1491 1491 1490 1490 1490 1490 1490 1492 1492 1491 1494 1496 1500 1501 1497 1500 1505 1509 1511 1514 1522 1529 1535 1537 1542 1547 1552 1557 1561 1565 1568 1573 1573 1574 1575 1577 1579
1504 1505 1500 1497 1497 1495 1493 1494 1492 1491 1489 1488 1488 1488 1487 1488 1489 1490 1490 1490 1490 1491 1491 1494 1494 1489 1494 1488 1498 1504 1510 1514 1520 1530 1536 1538 1544 1548 1552 1558 1562 1566 1569 1574 1575 1576 1577 1578 1580
1500 1496 1494 1493 1492 1493 1492 1490 1489 1487 1484 1481 1483 1484 1485 1486 1488 1489 1489 1490 1490 1490 1490 1490 1491 1491 1492 1495 1498 1502 1508 1513 1523 1529 1534 1539 1542 1548 1553 1558 1562 1566 1570 1573 1575 1578 1579 1580 1582
1497 1490 1490 1488 1488 1490 1489 1487 1485 1484 1479 1478 1480 1482 1483 1485 1487 1487 1488 1487 1488 1488 1488 1489 1489 1490 1492 1496 1501 1502 1507 1513 1521 1529 1535 1537 1542 1548 1553 1557 1562 1565 1569 1572 1574 1577 1579 1581 1583
1493 1487 1486 1485 1485 1485 1485 1484 1483 1476 1476 1477 1478 1480 1481 1483 1485 1485 1486 1485 1485 1486 1485 1486 1488 1490 1493 1495 1501 1505 1509 1514 1521 1528 1534 1538 1544 1549 1555 1559 1562 1566 1570 1573 1573 1577 1579 1581 1583
1486 1485 1483 1481 1479 1480 1480 1480 1480 1469 1472 1474 1475 1478 1480 1480 1483 1484 1483 1483 1483 1483 1485 1486 1485 1488 1491 1495 1500 1504 1510 1517 1522 1528 1534 1540 1545 1551 1555 1558 1562 1566 1570 1573 1575 1578 1579 1582 1585
1485 1485 1481 1477 1475 1475 1477 1478 1474 1469 1469 1470 1473 1477 1478 1478 1480 1481 1481 1481 1481 1482 1484 1486 1486 1489 1493 1495 1500 1506 1511 1517 1523 1528 1534 1541 1547 1551 1554 1557 1562 1565 1569 1571 1576 1577 1580 1582 1585
1486 1486 1483 1472 1474 1475 1475 1474 1464 1467 1467 1468 1472 1475 1476 1476 1477 1478 1480 1480 1481 1482 1483 1485 1487 1488 1492 1497 1502 1505 1511 1516 1522 1528 1533 1541 1546 1550 1554 1557 1560 1564 1566 1571 1575 1576 1580 1582 1584
1487 1483 1483 1475 1471 1471 1472 1467 1465 1466 1467 1467 1469 1471 1473 1474 1474 1476 1477 1479 1479 1480 1482 1484 1487 1487 1490 1496 1502 1505 1509 1515 1520 1526 1532 1539 1544 1549 1553 1557 1561 1564 1566 1571 1573 1576 1579 1581 1583
1477 1484 1481 1474 1469 1470 1471 1466 1458 1463 1464 1464 1466 1468 1470 1470 1471 1473 1475 1477 1479 1480 1481 1483 1486 1488 1493 1498 1501 1506 1510 1515 1521 1525 1531 1538 1543 1548 1552 1556 1560 1562 1567 1570 1572 1575 1578 1580 1582
1470 1475 1474 1470 1469 1470 1466 1464 1455 1456 1459 1459 1461 1463 1465 1467 1469 1469 1471 1474 1476 1478 1480 1482 1485 1488 1492 1495 1500 1502 1508 1513 1520 1524 1528 1534 1541 1547 1550 1554 1558 1562 1564 1567 1571 1573 1575 1577 1579
1470 1471 1470 1467 1468 1469 1460 1460 1452 1453 1451 1450 1453 1456 1458 1462 1464 1466 1466 1469 1472 1475 1478 1480 1482 1486 1489 1494 1498 1501 1505 1511 1516 1521 1525 1531 1539 1544 1547 1552 1556 1559 1562 1566 1569 1571 1572 1575 1577
1467 1466 1468 1468 1468 1465 1464 1457 1449 1444 1447 1447 1446 1449 1452 1453 1457 1461 1462 1464 1467 1471 1474 1476 1480 1484 1487 1490 1493 1498 1503 1508 1512 1517 1521 1527 1535 1540 1545 1550 1553 1556 1559 1565 1567 1569 1570 1571 1573
1466 1459 1464 1467 1472 1472 1464 1461 1454 1442 1441 1442 1440 1442 1443 1447 1451 1455 1457 1458 1462 1466 1470 1474 1477 1479 1483 1487 1490 1493 1497 1502 1507 1513 1519 1522 1529 1537 1543 1548 1550 1555 1559 1561 1563 1567 1567 1567 1569
1454 1455 1459 1463 1468 1470 1465 1467 1449 1447 1438 1432 1431 1433 1435 1438 1442 1446 1449 1453 1457 1461 1466 1470 1473 1476 1480 1483 1487 1490 1496 1500 1504 1510 1516 1522 1528 1535 1540 1545 1547 1551 1553 1557 1560 1561 1561 1563 1564
1450 1456 1460 1464 1467 1470 1461 1462 1443 1440 1433 1428 1426 1427 1429 1431 1435 1439 1445 1450 1452 1456 1460 1466 1469 1472 1475 1478 1482 1487 1493 1497 1504 1509 1515 1520 1524 1531 1536 1540 1544 1547 1550 1552 1554 1555 1556 1557 1559
1451 1455 1467 1471 1471 1460 1451 1457 1434 1431 1425 1425 1423 1424 1425 1427 1429 1434 1437 1441 1446 1450 1454 1459 1464 1467 1471 1474 1478 1483 1489 1494 1500 1506 1511 1516 1520 1525 1529 1534 1537 1541 1543 1546 1548 1549 1550 1551 1552
1446 1450 1457 1463 1460 1450 1454 1451 1433 1423 1422 1421 1421 1421 1419 1420 1421 1425 1428 1433 1438 1443 1449 1453 1457 1462 1466 1470 1475 1479 1484 1489 1494 1500 1505 1510 1514 1519 1524 1527 1530 1534 1537 1539 1541 1542 1543 1545 1545
1444 1449 1443 1454 1459 1457 1443 1436 1425 1419 1417 1418 1416 1417 1415 1414 1415 1418 1423 1427 1431 1435 1440 1445 1451 1457 1462 1465 1470 1474 1479 1483 1487 1493 1497 1503 1508 1512 1516 1519 1522 1526 1529 1531 1533 1534 1536 1537 1537
1429 1434 1449 1454 1455 1454 1440 1441 1430 1421 1414 1412 1413 1414 1412 1409 1408 1410 1415 1419 1424 1428 1433 1438 1443 1449 1456 1461 1464 1467 1472 1476 1481 1486 1490 1494 1499 1504 1507 1510 1513 1516 1519 1521 1524 1526 1527 1528 1528
1432 1432 1435 1435 1442 1440 1442 1432 1420 1414 1411 1413 1411 1410 1410 1406 1404 1406 1410 1415 1420 1423 1427 1431 1435 1439 1445 1452 1458 1461 1463 1467 1472 1476 1480 1484 1489 1492 1495 1499 1503 1507 1509 1511 1513 1516 1517 1517 1518
1424 1428 1430 1437 1436 1440 1439 1427 1413 1413 1411 1411 1408 1406 1406 1405 1402 1403 1406 1410 1414 1417 1420 1423 1427 1430 1434 1439 1445 1453 1457 1459 1462 1464 1467 1471 1474 1480 1484 1490 1494 1497 1500 1502 1504 1505 1507 1506 1506